Tracking 28790 objects as of 19-Apr-2024
HD Live streaming from Space Station
objects crossing your sky now

NOAA 16 DEB

Track NOAA 16 DEB now!
10-day predictions


NORAD ID: 41086
Int'l Code: 2000-055AV
Perigee: 739.9 km
Apogee: 804.7 km
Inclination: 98.8 °
Period: 100.1 minutes
Semi major axis: 7143 km
RCS: Unknown
Launch date: September 21, 2000
Source: United States (US)
Launch site: AIR FORCE WESTERN TEST RANGE (AFWTR)

Note: This is SATELLITE DEBRIS
Your satellite tracking list
Your tracking list is empty




NASA's NSSDC Master Catalog

Two Line Element Set (TLE):
1 41086U 00055AV  24109.28856112  .00021289  00000-0  69514-2 0  9997
2 41086  98.7903 231.9450 0045397 208.9490 150.9177 14.37981442436883
Source of the keplerian elements: AFSPC